Torna al catalogo

STARLINK-5562

AttivoComunicazioniSSO
NORAD 56336·PAYLOAD·🇺🇸 United States

Lanciato Apr 27, 2023 da Vandenberg Space Force Base

Loading…

Prossimi Passaggi (prossime 24 ore)

TLE

AggiornatoSource: CelesTrak SupGP

Epoca: Sep 15, 2026, 02:47 UTC

1 56336C 23058V   26258.11645833  .00529150  00000+0  31981-1 0  2587
2 56336  97.2848 252.2388 0001365  89.2565 112.6945 15.10496426    10

Traccia STARLINK-5562 in tempo reale con AllMySat

Download on the App Store